Regional Weather Roundup
Issued by NWS

Home | Current Version | Previous Version | Graphics & Text | Print | Product List | Glossary On
Versions: 1 2 3 4 5 6 7 8 9 10 11 12 13 14 15 16 17 18 19 20 21 22 23 24 25 26 27 28 29 30 31 32 33 34 35 36 37 38 39 40 41 42 43 44 45 46 47 48 49 50
000
ASUS43 KOAX 232302
RWRNE

WEATHER ROUNDUP FOR NEBRASKA
NATIONAL WEATHER SERVICE OMAHA NE
600 PM CDT WED APR 23 2014

NOTES: SATELLITE DATA IS BEING USED TO AUGMENT CLOUD COVER ABOVE
       12000 FEET.
       "FAIR" INDICATES FEW OR NO CLOUDS BELOW 12,000 FEET WITH NO
       SIGNIFICANT WEATHER AND/OR OBSTRUCTIONS TO VISIBILITY.

  * THESE STATIONS DO NOT REPORT WEATHER SUCH AS RAIN...SNOW OR FOG.

NEZ001>004-019>022-054>056-240000-
NEBRASKA PANHANDLE

CITY           SKY/WX    TMP DP  RH WIND       PRES   REMARKS
SCOTTSBLUFF    CLOUDY    62  17  17 W18G31    29.68R
ALLIANCE       CLOUDY    63  17  17 NW17G28   29.64S
CHADRON        CLOUDY    63  31  30 NW15G23   29.65R
KIMBALL        CLOUDY    56  16  21 N23G31    29.70S
SIDNEY         CLOUDY    61  22  22 N28G33    29.70R
$$

NEZ057>060-069>072-079>082-240000-
SOUTHWEST NEBRASKA

CITY           SKY/WX    TMP DP  RH WIND       PRES   REMARKS
NORTH PLATTE   PTSUNNY   74  33  22 NW16G23   29.55S
IMPERIAL       MOSUNNY   74  26  16 N22G32    29.56F
LEXINGTON      MOSUNNY   80  43  27 N14G25    29.48F
MCCOOK         MOSUNNY   80  41  24 N21       29.47F
OGALLALA       MOSUNNY   72  22  15 N17G28    29.60R
$$

NEZ005>010-023>029-035>040-094-240000-
NORTH CENTRAL NEBRASKA

CITY           SKY/WX    TMP DP  RH WIND       PRES   REMARKS
VALENTINE      MOSUNNY   74  20  13 W22G31    29.56R
AINSWORTH      MOSUNNY   77  26  15 NW21      29.56R
BROKEN BOW     SUNNY     79  28  15 N16       29.52F
O`NEILL        MOSUNNY   80  37  21 W13G18    29.50R
ORD            MOSUNNY   80  44  27 NW13      29.48R
THEDFORD       SUNNY     74  20  12 NW13G28   29.59S
$$

NEZ041-046>049-061>064-073>077-083>087-240000-
SOUTH CENTRAL NEBRASKA

CITY           SKY/WX    TMP DP  RH WIND       PRES   REMARKS
GRAND ISLAND   CLOUDY    69  55  60 S18G32    29.51F
AURORA         CLOUDY    66  55  67 S29G38    29.48F
HASTINGS       CLOUDY    63  57  81 E6        29.49F THUNDER
HEBRON         CLOUDY    79  48  33 S18G26    29.54F
HOLDREGE       CLOUDY    72  49  43 SE10      29.46F
KEARNEY *      PTSUNNY   81  46  30 W13       29.47F
YORK           TSTM      70  50  49 S7        29.60R
$$

NEZ011>018-030>034-042>045-240000-
NORTHEAST NEBRASKA

CITY           SKY/WX    TMP DP  RH WIND       PRES   REMARKS
NORFOLK        MOSUNNY   67  43  41 SE22G36   29.55F
ALBION         TSTM      65  53  64 N17       29.54R VSB 1
BLAIR          CLOUDY    56  43  60 SE23G31   29.65F
COLUMBUS *     PTSUNNY   64  43  45 SE18G25   29.54F
FREMONT        PTSUNNY   60  43  55 SE21G32   29.63F THUNDER
TEKAMAH        PTSUNNY   60  43  53 SE23G31   29.67F
$$

NEZ050>053-065>068-078-088>093-240000-
SOUTHEAST NEBRASKA

CITY           SKY/WX    TMP DP  RH WIND       PRES   REMARKS
LINCOLN        TSTM      67  46  47 SE20G26   29.61F
OMAHA EPPLEY   CLOUDY    55  44  66 SE24G32   29.66F
BEATRICE       CLOUDY    74  46  37 SE22G36   29.53F
FALLS CITY     CLOUDY    70  45  40 SE20G32   29.67S
NEBRASKA CITY  CLOUDY    65  45  48 SE17      29.66F
PLATTSMOUTH    CLOUDY    59  46  61 E16       29.67F
$$

NEZ044-045-051>053-067-240000-
OMAHA AREA

CITY           SKY/WX    TMP DP  RH WIND       PRES   REMARKS
OMAHA EPPLEY   CLOUDY    55  44  66 SE24G32   29.66F
BLAIR          CLOUDY    56  43  60 SE23G31   29.65F
FREMONT        PTSUNNY   60  43  55 SE21G32   29.63F THUNDER
MILLARD        CLOUDY    55  45  68 SE16G25   29.66F THUNDER
OFFUTT AFB     PTSUNNY   56  48  73 E20G25    29.69S
PLATTSMOUTH    CLOUDY    59  46  61 E16       29.67F
WAHOO          FAIR      60  44  56 SE23G31   29.63F
$$



USA.gov is the U.S. government's official web portal to all federal, state and local government web resources and services.